Temperature
21 21 21 21 24 24 23 23 24 23 23 22 22 22 23 22 22 21 18 17 17 17 17 17 17 17 17 17 17 17 17 17 18 17 18 18 18 18 18 18 18 18 18 18 18 18 18 18 18
20 21 21 23 25 24 23 24 23 23 23 22 22 22 22 21 20 19 18 17 17 17 17 16 17 17 17 17 17 17 17 17 17 17 17 17 17 17 17 17 18 18 18 18 18 18 18 18 18
21 21 22 24 24 24 23 24 24 23 22 22 22 22 22 20 19 18 17 17 17 17 17 17 17 17 17 17 17 17 17 17 17 17 17 17 17 17 17 17 17 17 17 17 17 17 18 18 18
20 21 23 25 24 24 24 24 24 23 22 22 22 22 20 19 19 18 17 17 17 17 17 17 17 17 17 17 17 17 17 17 17 17 17 17 17 17 17 17 17 17 17 17 17 17 17 17 17
21 23 24 24 24 24 24 24 24 24 23 23 22 22 20 18 18 18 17 17 17 17 17 17 17 17 17 17 17 17 17 17 17 17 17 17 17 17 17 17 17 17 17 17 17 17 17 17 17
22 24 24 24 24 24 24 24 24 24 23 22 22 22 20 18 18 18 17 17 17 17 17 16 17 17 17 17 17 17 17 17 17 17 17 17 17 17 17 17 17 17 17 17 17 17 17 17 17
24 25 24 24 23 24 24 23 24 24 23 22 22 22 20 19 18 18 17 17 17 17 17 17 17 17 17 17 17 17 16 17 17 17 17 17 17 17 17 17 17 17 17 17 17 17 17 17 17
23 25 24 24 23 23 23 23 23 23 23 21 22 22 21 19 18 18 17 17 17 17 17 17 17 17 16 16 17 17 17 17 17 17 17 17 16 16 16 16 16 16 16 16 16 16 16 16 16
23 24 24 24 24 24 23 23 22 22 22 21 21 21 20 19 18 18 18 18 17 17 17 17 17 17 17 16 16 16 16 16 16 16 16 16 16 16 16 16 16 16 16 16 16 16 16 16 16
24 24 24 24 25 24 24 23 23 22 23 22 21 20 19 19 19 19 19 18 18 18 17 17 17 17 17 16 16 16 16 16 16 16 16 16 16 16 16 16 16 16 16 16 16 16 16 16 16
24 24 24 24 24 23 23 23 23 23 23 22 22 20 19 19 19 19 19 18 18 18 17 17 17 17 17 17 16 16 16 16 16 16 16 16 16 16 16 16 16 16 16 16 16 16 15 15 16
24 24 24 24 23 23 23 23 23 23 22 22 21 20 20 19 19 19 19 18 18 18 17 17 17 17 17 17 16 16 16 16 16 16 16 16 16 16 16 16 15 15 15 15 15 15 15 15 15
24 24 23 23 22 23 23 23 22 22 21 21 21 20 20 20 19 19 19 18 18 18 17 17 17 17 17 17 16 16 16 16 16 16 16 16 16 16 16 16 15 15 15 15 15 15 15 15 15
23 23 23 23 23 22 23 23 22 22 21 21 20 20 20 20 19 19 19 18 18 18 18 17 17 17 17 17 17 17 16 16 16 16 16 16 16 16 15 15 15 15 15 15 15 15 15 15 15
23 23 23 23 23 23 23 23 23 22 21 21 21 20 20 19 19 19 19 18 18 18 18 17 17 17 17 17 17 16 16 16 16 16 16 16 15 15 15 15 15 15 15 15 15 15 15 15 15
24 24 23 23 23 23 23 23 23 22 21 21 21 21 20 19 19 19 19 19 18 18 18 17 17 17 17 17 17 16 16 16 16 16 16 16 15 15 15 15 15 15 15 15 15 15 15 15 14
24 23 23 23 23 23 23 23 23 21 22 22 21 21 20 20 19 19 19 18 18 18 18 18 17 17 17 17 16 16 16 16 16 16 16 16 15 15 15 15 15 15 15 15 15 15 14 14 14
23 24 23 23 24 23 23 23 23 22 22 22 22 21 21 20 20 19 19 18 18 18 18 18 17 17 17 16 16 16 16 16 16 16 15 15 15 15 15 15 15 15 14 14 14 14 14 14 14
24 23 23 24 24 23 23 23 24 23 22 22 22 21 21 20 20 19 18 18 18 18 18 18 17 17 17 17 16 16 16 16 16 15 15 15 15 15 15 15 15 15 14 14 14 14 14 14 14
23 23 23 23 23 23 23 23 24 23 22 22 21 21 21 20 20 19 18 18 18 18 18 18 17 17 17 17 16 16 16 16 15 15 15 15 15 15 15 15 15 14 14 14 14 14 14 14 14
23 23 23 23 23 23 23 23 23 23 22 21 21 21 20 20 20 19 19 18 18 18 18 18 17 17 17 17 16 16 16 16 16 15 15 15 15 15 15 15 14 14 14 14 14 14 14 14 14
23 23 23 23 23 23 23 23 24 23 23 22 21 20 20 20 19 19 19 18 18 18 18 17 17 17 17 16 16 16 16 16 15 15 15 15 15 15 15 14 14 14 14 14 14 14 14 13 13
23 23 23 23 23 23 23 23 24 23 23 23 22 21 20 20 19 19 18 18 18 18 18 17 17 17 17 16 16 16 16 15 15 15 15 15 15 14 14 14 14 14 14 14 14 14 13 13 13
22 22 22 22 23 22 23 23 23 23 23 23 23 21 20 20 19 19 18 18 18 18 18 18 17 17 17 17 16 16 16 15 15 15 15 14 14 14 14 14 14 14 14 14 14 13 13 13 13
22 22 22 22 22 22 23 22 23 23 23 23 22 21 20 19 19 19 18 18 18 18 18 17 17 17 17 16 16 16 16 15 15 15 14 14 14 14 14 14 14 14 14 13 13 13 13 13 13
22 23 22 21 22 23 22 22 23 23 22 22 21 21 20 19 19 18 18 18 17 17 17 17 17 17 16 16 16 16 15 15 15 15 14 14 14 14 14 14 14 14 13 13 13 13 13 13 13
22 22 23 22 22 22 23 23 23 23 22 22 21 20 20 19 18 18 18 17 17 17 17 17 17 17 16 16 16 15 15 15 15 14 14 14 14 14 14 14 13 13 13 13 13 13 13 12 12
22 23 22 22 21 21 22 22 23 22 22 22 22 21 20 19 18 18 17 17 17 17 17 17 17 16 16 16 16 15 15 15 15 15 14 14 14 14 13 13 13 13 13 13 12 12 12 12 12
21 21 22 22 22 21 21 22 23 23 23 22 22 21 20 19 18 18 17 17 17 17 17 17 17 16 16 16 16 15 15 15 15 15 14 14 14 14 13 13 13 13 13 13 12 12 12 12 12
21 22 22 21 21 21 21 22 23 22 22 21 21 20 19 18 17 17 17 16 16 16 16 16 16 16 16 16 15 15 15 15 15 14 14 14 14 13 13 13 13 12 12 12 12 12 12 12 12
Wind_Speed
5 3 2 2 2 3 6 5 4 4 4 5 5 4 5 5 4 4 4 4 4 4 4 5 6 6 7 7 8 8 9 9 9 9 9 9 10 10 9 9 9 9 9 9 9 9 9 8 8
2 1 2 1 1 5 6 5 5 6 6 5 5 5 6 6 6 6 5 4 4 4 5 6 7 7 7 8 9 9 9 9 9 10 10 10 10 10 9 9 9 9 9 9 9 9 9 9 8
2 2 1 1 3 5 6 5 6 6 5 3 4 4 4 5 5 4 5 5 5 5 6 8 7 7 8 9 9 10 10 10 10 10 10 10 10 10 10 10 9 9 9 9 9 10 9 9 8
2 1 1 3 7 6 5 6 6 6 4 3 4 5 5 5 4 5 6 5 6 6 7 9 8 8 9 9 10 10 10 11 10 10 10 10 10 10 10 10 9 9 9 9 10 10 9 9 8
1 1 3 5 7 5 5 5 4 5 4 4 5 6 6 5 6 7 6 6 6 7 7 10 9 9 10 10 10 10 10 11 11 11 11 11 11 11 11 10 10 10 10 10 10 10 10 10 9
1 1 3 5 6 5 4 4 4 4 5 5 5 7 6 6 6 6 6 6 6 7 7 9 10 9 10 10 10 10 10 10 11 11 11 12 12 12 12 11 11 11 11 11 11 11 12 11 10
1 2 4 5 5 5 4 3 4 4 5 4 4 6 6 6 6 6 7 6 6 6 6 7 8 9 9 9 10 10 10 10 10 11 11 12 12 12 12 12 11 11 11 12 12 12 11 11 10
0 2 4 4 4 4 4 4 3 3 4 4 3 4 6 8 7 7 7 7 6 6 5 5 6 6 7 9 10 9 9 9 10 10 9 9 10 11 10 11 12 11 11 11 12 11 11 11 11
1 2 4 4 4 5 6 5 4 3 6 5 3 4 7 11 9 8 7 6 6 5 5 5 5 5 6 7 8 7 8 7 6 8 7 5 7 9 8 12 11 10 10 10 10 10 10 9 10
2 2 3 3 3 5 6 4 5 5 5 5 6 7 9 10 9 7 7 6 6 6 5 5 4 5 5 5 5 5 6 6 6 6 6 6 7 7 7 9 9 9 9 9 9 7 6 4 6
2 2 3 3 3 4 5 4 4 4 4 4 6 9 11 10 8 7 6 6 5 5 5 4 4 5 5 4 4 4 4 5 5 6 6 5 5 5 5 5 6 6 5 6 6 4 5 6 6
2 2 2 3 3 4 4 4 4 3 3 4 6 9 10 9 8 7 6 5 5 5 5 5 4 4 4 4 4 4 4 4 4 5 5 5 4 4 4 4 4 4 4 5 5 4 5 6 6
3 3 3 3 3 3 5 4 3 3 3 5 7 9 9 8 7 6 5 5 6 6 5 5 4 4 4 4 3 4 4 4 5 4 4 4 3 4 4 3 3 4 4 4 4 4 5 5 6
3 3 3 3 3 3 4 3 3 3 5 7 8 8 8 7 7 7 6 6 6 6 6 6 5 4 4 4 3 3 4 3 3 4 3 4 3 3 3 3 3 3 3 3 3 4 4 4 5
4 3 2 2 3 3 3 3 4 4 7 8 8 8 8 7 7 7 7 6 6 6 6 5 4 4 4 3 3 3 3 3 3 3 3 4 4 3 3 3 3 3 3 3 3 4 3 4 4
4 4 3 2 3 4 5 3 3 6 8 8 8 8 8 7 7 6 6 6 6 6 6 6 4 4 4 3 3 2 3 3 3 3 3 4 4 4 3 2 3 3 2 2 2 2 2 3 3
4 4 3 2 3 4 5 4 3 5 8 8 8 8 8 8 7 7 7 6 6 6 6 6 6 5 4 3 3 2 3 3 2 2 2 2 3 3 3 2 2 3 2 2 2 2 2 3 3
4 4 3 3 2 5 6 5 4 6 7 7 8 8 8 8 8 8 7 7 6 6 6 6 6 5 5 4 3 3 2 2 2 2 2 3 2 3 3 2 2 2 2 2 2 3 2 2 2
4 4 4 2 2 5 6 6 5 6 7 8 8 8 9 9 9 8 8 7 7 7 7 7 6 6 5 4 3 3 3 2 2 2 2 2 2 2 2 1 2 2 2 2 2 2 3 2 2
6 6 5 3 2 4 5 6 5 6 7 7 7 8 9 9 9 9 9 8 8 7 7 7 7 6 6 4 3 3 3 2 2 2 2 2 1 1 1 1 1 2 1 2 2 2 1 1 0
7 7 6 5 3 5 5 6 6 5 6 7 8 8 8 9 9 10 10 9 9 8 8 7 7 7 7 6 4 3 3 2 3 2 2 2 1 1 1 1 1 1 1 1 1 1 1 0 0
7 5 6 6 7 5 5 6 5 5 6 7 8 9 10 10 9 10 10 10 10 9 8 8 7 7 6 6 5 5 4 4 3 3 2 3 2 2 1 1 1 1 1 1 1 0 1 1 1
4 2 5 7 8 8 7 7 3 4 6 7 8 9 10 10 10 10 10 10 10 9 8 7 7 6 6 6 6 6 4 3 3 3 3 3 2 2 2 1 1 1 1 1 1 1 1 1 1
4 4 4 6 7 8 6 7 4 3 5 5 6 8 9 10 10 10 9 8 9 8 7 7 7 7 6 6 6 6 5 5 4 4 3 3 2 2 1 1 2 2 1 1 1 1 1 1 1
6 6 5 6 6 5 3 6 4 2 3 4 5 6 7 8 9 9 9 9 9 9 9 8 8 7 7 7 6 6 6 6 5 4 4 3 2 2 2 2 2 1 1 1 1 2 2 2 1
7 8 6 5 5 4 4 5 2 1 2 3 4 5 6 7 8 8 9 9 9 9 9 9 9 8 7 7 6 5 5 4 4 4 4 3 3 2 2 2 2 2 2 2 2 2 2 2 2
7 7 6 7 7 7 5 5 5 4 3 3 3 4 6 7 8 8 8 8 8 9 9 9 9 8 8 7 6 6 6 5 4 4 4 3 3 2 3 3 2 2 2 2 2 2 2 2 2
5 5 5 7 6 7 6 7 4 4 4 3 3 4 5 6 7 7 7 7 7 7 8 8 9 9 8 7 6 5 5 5 4 4 4 4 3 3 3 3 3 3 2 2 2 2 2 3 2
6 7 7 7 6 6 6 3 0 3 2 3 3 3 4 5 6 6 6 7 7 6 7 7 8 8 7 7 7 6 5 5 5 4 4 4 4 4 3 3 3 3 2 2 2 3 3 3 3
7 8 9 9 8 7 7 5 1 2 2 3 3 2 3 4 5 5 6 6 6 6 6 7 7 7 7 7 7 6 5 5 5 4 4 4 4 3 3 3 3 2 2 2 3 3 3 3 3
Wind_Direction
175 179 223 236 196 103 85 82 84 90 76 67 67 70 68 50 37 69 92 89 81 80 79 85 61 64 71 75 76 77 75 70 72 74 74 76 76 75 74 73 78 79 76 78 85 85 85 88 89
167 191 234 243 160 112 93 95 95 81 95 102 86 78 78 73 65 91 108 102 97 86 81 72 70 73 75 77 79 78 75 72 74 75 75 77 76 74 75 77 77 76 76 77 85 86 87 87 85
161 226 277 105 84 86 101 103 107 106 109 111 97 70 63 77 87 99 104 120 106 91 85 80 79 79 79 80 80 78 73 72 74 73 74 74 75 75 74 75 75 73 75 77 82 81 85 89 85
203 203 194 103 96 83 92 108 121 127 115 95 109 94 82 72 89 101 116 121 108 97 90 86 82 84 82 79 78 75 71 70 73 73 73 73 72 74 77 78 77 75 74 76 86 82 84 88 85
220 207 126 110 100 98 98 106 127 124 113 106 107 102 98 90 95 107 117 113 106 97 93 92 82 81 80 78 76 73 72 70 73 76 73 72 71 72 74 75 74 73 74 76 81 80 81 80 79
184 182 129 115 110 113 116 119 131 115 112 113 111 108 100 113 113 113 116 112 105 103 100 100 97 84 79 76 73 73 72 71 70 73 72 70 69 68 69 70 70 70 71 75 76 77 75 74 72
141 118 113 120 125 123 115 121 128 122 120 118 122 114 118 126 120 122 117 112 107 104 104 103 108 105 98 84 75 74 72 71 71 72 73 72 70 67 67 68 67 68 69 72 73 73 73 72 71
301 138 129 127 134 125 131 134 119 119 112 117 137 116 132 140 137 130 122 119 114 108 105 104 101 98 100 98 88 81 78 75 73 73 74 79 86 81 74 72 67 68 69 72 72 72 73 71 71
213 156 134 139 138 127 143 144 126 118 124 124 111 86 115 136 143 138 131 125 117 114 112 107 103 100 96 94 101 102 99 89 94 92 91 86 78 77 80 66 66 69 72 75 74 74 76 79 81
177 128 125 140 142 134 148 147 142 148 142 136 129 117 128 143 151 149 143 136 128 122 116 109 108 108 104 96 102 97 89 86 78 77 76 73 71 71 72 86 77 77 81 87 81 80 90 80 78
126 113 132 156 154 149 153 147 151 158 142 151 152 146 146 154 158 157 148 137 126 123 118 116 108 106 106 104 96 92 88 86 83 79 80 77 77 80 73 82 93 87 89 81 93 96 73 70 68
127 119 150 153 160 172 168 155 156 165 120 126 147 148 151 159 162 160 153 141 136 130 123 118 115 115 112 109 102 102 95 88 85 80 76 74 73 72 74 76 73 72 73 67 65 65 73 72 74
135 125 113 120 150 161 155 155 153 161 146 129 141 152 158 163 164 160 154 149 146 139 136 132 130 127 121 106 107 108 94 88 91 79 73 74 69 70 76 76 76 68 69 71 64 63 64 65 66
119 128 136 143 147 158 159 167 187 177 163 156 159 164 166 164 167 164 163 160 154 151 145 140 139 136 130 126 125 103 97 102 87 81 76 79 77 77 72 74 76 75 70 67 69 69 66 62 61
151 153 149 174 191 182 178 197 212 190 174 174 175 171 168 168 171 174 170 167 162 156 153 145 147 145 136 122 112 107 106 95 86 81 82 86 80 82 81 75 77 78 76 79 73 75 70 70 70
176 197 201 181 201 199 219 228 175 178 184 187 185 176 177 177 179 177 174 173 172 167 162 155 160 156 145 136 133 119 114 104 95 89 77 81 84 78 75 74 79 81 79 78 74 70 77 74 66
203 214 213 193 201 203 217 239 174 177 192 196 194 190 185 184 185 184 182 180 180 178 173 166 164 162 156 149 147 134 126 121 105 101 92 85 90 91 89 76 78 81 77 68 69 70 72 80 75
215 224 225 234 199 211 226 240 212 190 202 206 201 200 195 196 191 187 185 184 180 182 181 172 163 171 160 161 160 146 138 133 117 113 113 96 98 96 97 105 92 80 83 77 81 84 84 80 85
229 234 244 256 242 231 238 247 235 204 210 215 210 206 206 207 194 187 185 187 183 182 186 180 176 175 170 171 178 167 157 150 137 121 106 122 119 110 104 112 91 78 79 78 85 95 103 93 93
224 234 248 246 251 253 251 254 244 222 220 221 219 212 209 208 196 190 192 191 189 186 191 189 186 182 180 182 181 172 163 162 141 151 147 150 143 130 123 140 126 123 114 107 96 107 94 82 308
230 238 249 265 264 235 261 252 224 215 218 221 224 219 212 209 204 197 195 195 193 193 196 198 192 186 183 178 173 158 148 159 165 170 164 165 167 152 155 147 168 164 171 147 162 162 156 159 338
239 245 248 250 256 254 252 272 239 220 214 217 219 218 215 211 209 203 200 198 201 200 200 202 193 187 182 179 182 179 182 183 184 177 171 175 176 177 183 177 202 199 198 201 203 234 259 257 243
256 233 243 250 258 263 245 262 247 204 227 225 217 214 215 211 209 206 204 202 201 196 197 200 190 185 180 184 185 194 195 189 175 172 170 177 170 185 189 195 206 212 214 236 232 232 255 259 275
194 204 220 233 248 253 247 251 263 228 242 238 220 212 211 210 207 205 201 198 196 188 187 190 186 182 180 186 191 197 192 191 182 183 183 186 178 189 201 216 216 213 219 226 222 222 233 260 269
212 232 235 228 227 243 218 245 254 268 266 259 242 217 208 206 205 201 196 194 192 190 189 187 185 184 184 190 198 199 197 196 196 193 195 202 200 200 204 214 220 223 230 231 220 220 225 238 247
224 237 249 259 255 249 218 240 232 274 271 263 243 218 203 198 199 199 196 194 192 191 191 191 188 188 188 194 199 199 193 194 199 202 204 209 216 214 207 208 225 223 226 220 213 232 231 238 237
222 229 260 271 273 265 237 239 243 240 245 239 223 211 205 200 199 198 194 192 191 189 190 193 189 189 188 194 197 196 193 192 198 205 206 209 212 206 204 210 220 214 216 219 215 233 232 241 249
249 224 225 241 255 254 247 247 243 215 233 234 224 217 209 204 201 199 193 192 190 189 190 193 193 190 188 190 193 194 199 195 194 199 201 211 210 200 200 210 215 207 207 213 224 240 249 244 237
201 211 230 240 253 264 262 248 287 261 252 267 257 233 211 203 203 200 194 190 188 185 186 190 190 189 188 190 190 193 195 191 189 197 198 203 199 197 198 209 218 219 218 219 217 235 236 241 236
239 233 229 239 241 250 268 266 124 273 274 285 291 277 231 210 201 196 189 183 182 181 183 187 187 187 189 191 190 193 188 189 191 190 187 194 196 198 200 201 212 218 228 237 230 231 235 239 244
Height
1505 1505 1505 1506 1505 1505 1511 1511 1509 1510 1512 1514 1515 1514 1513 1515 1517 1524 1525 1523 1523 1522 1522 1521 1520 1519 1519 1519 1518 1518 1518 1518 1517 1517 1517 1517 1517 1517 1517 1517 1517 1517 1517 1517 1517 1517 1517 1518 1518
1506 1506 1507 1507 1503 1510 1514 1510 1511 1512 1514 1516 1516 1516 1516 1518 1521 1523 1523 1523 1524 1523 1523 1522 1521 1520 1520 1520 1520 1520 1519 1519 1519 1519 1519 1519 1518 1518 1518 1518 1518 1518 1518 1518 1518 1518 1518 1518 1519
1506 1506 1508 1504 1505 1509 1513 1510 1511 1515 1516 1516 1517 1518 1519 1521 1523 1524 1524 1524 1525 1524 1524 1523 1522 1522 1522 1522 1521 1521 1521 1521 1521 1520 1520 1520 1520 1520 1520 1520 1519 1519 1519 1519 1519 1519 1519 1519 1520
1507 1509 1508 1505 1510 1509 1509 1510 1512 1514 1517 1517 1517 1519 1522 1524 1525 1525 1525 1525 1526 1526 1525 1524 1524 1524 1523 1523 1523 1523 1523 1523 1523 1522 1522 1522 1522 1522 1521 1521 1521 1521 1521 1520 1520 1520 1520 1520 1520
1508 1508 1506 1509 1510 1510 1510 1512 1513 1513 1515 1517 1517 1520 1523 1526 1525 1526 1526 1527 1527 1527 1527 1526 1525 1526 1526 1526 1525 1525 1525 1525 1525 1524 1524 1524 1523 1523 1523 1523 1523 1523 1522 1522 1522 1521 1521 1521 1521
1509 1506 1507 1511 1511 1510 1511 1513 1514 1514 1516 1518 1519 1520 1525 1526 1526 1527 1528 1528 1528 1528 1529 1528 1527 1528 1528 1528 1527 1527 1527 1527 1526 1526 1526 1526 1525 1525 1525 1524 1524 1524 1524 1523 1523 1523 1523 1523 1522
1509 1505 1508 1510 1512 1512 1513 1514 1514 1515 1517 1519 1520 1521 1525 1527 1527 1528 1528 1529 1529 1529 1530 1530 1531 1530 1530 1529 1529 1529 1529 1529 1528 1528 1528 1528 1527 1527 1527 1526 1526 1526 1526 1525 1525 1525 1525 1525 1524
1508 1507 1508 1509 1512 1513 1514 1515 1516 1517 1518 1521 1522 1521 1524 1527 1527 1528 1529 1530 1530 1531 1531 1532 1532 1532 1533 1532 1531 1531 1531 1530 1530 1530 1530 1530 1529 1529 1529 1528 1528 1528 1527 1527 1527 1527 1526 1526 1525
1509 1508 1510 1510 1511 1512 1514 1515 1517 1519 1519 1521 1522 1523 1525 1527 1528 1529 1530 1531 1531 1532 1532 1533 1533 1533 1534 1534 1533 1533 1533 1532 1532 1532 1532 1532 1533 1532 1531 1530 1530 1530 1529 1529 1529 1528 1528 1528 1527
1508 1508 1509 1508 1509 1511 1513 1515 1517 1518 1519 1521 1523 1525 1525 1527 1528 1529 1530 1531 1532 1532 1533 1534 1534 1534 1535 1535 1535 1535 1535 1534 1535 1535 1534 1534 1534 1533 1533 1532 1532 1531 1531 1531 1531 1530 1530 1530 1530
1507 1507 1508 1510 1511 1512 1513 1515 1517 1517 1518 1520 1522 1524 1526 1527 1529 1529 1531 1532 1532 1533 1533 1534 1535 1535 1536 1536 1536 1536 1536 1536 1536 1536 1536 1535 1535 1535 1535 1535 1534 1534 1533 1533 1533 1533 1532 1532 1532
1508 1509 1509 1510 1512 1513 1513 1515 1516 1517 1519 1520 1522 1524 1525 1527 1528 1530 1531 1532 1533 1533 1534 1535 1535 1536 1536 1537 1537 1537 1537 1538 1538 1538 1538 1537 1537 1537 1536 1536 1536 1536 1535 1535 1535 1534 1534 1534 1534
1508 1510 1511 1512 1512 1513 1514 1515 1517 1518 1520 1521 1522 1524 1525 1527 1529 1530 1531 1532 1533 1534 1535 1535 1536 1536 1537 1537 1537 1538 1538 1539 1539 1538 1539 1538 1538 1538 1538 1538 1537 1537 1537 1536 1536 1536 1536 1536 1535
1509 1510 1511 1512 1513 1514 1514 1515 1517 1518 1520 1521 1522 1524 1525 1527 1529 1530 1531 1532 1533 1534 1535 1536 1536 1537 1538 1538 1539 1539 1539 1539 1539 1539 1539 1539 1539 1539 1539 1539 1538 1538 1538 1538 1537 1537 1537 1537 1536
1510 1510 1511 1512 1512 1514 1514 1515 1515 1517 1519 1520 1522 1524 1525 1527 1528 1529 1531 1532 1533 1534 1535 1536 1537 1537 1538 1539 1539 1539 1540 1540 1540 1540 1540 1540 1540 1540 1540 1540 1539 1539 1539 1539 1538 1538 1538 1537 1537
1508 1509 1512 1511 1511 1513 1515 1515 1513 1516 1518 1519 1521 1522 1524 1526 1527 1529 1530 1532 1533 1534 1535 1536 1536 1537 1538 1539 1539 1540 1540 1540 1540 1541 1541 1541 1541 1541 1540 1540 1540 1540 1539 1539 1539 1539 1538 1538 1538
1508 1510 1511 1510 1510 1511 1512 1512 1512 1515 1516 1517 1519 1521 1523 1525 1527 1528 1529 1531 1532 1533 1534 1535 1536 1537 1538 1538 1539 1539 1540 1540 1540 1541 1541 1541 1541 1541 1541 1540 1540 1540 1540 1540 1539 1539 1539 1539 1538
1510 1508 1509 1510 1507 1509 1509 1509 1510 1513 1515 1515 1517 1519 1521 1523 1525 1526 1528 1530 1531 1532 1534 1535 1536 1537 1537 1538 1539 1539 1540 1540 1540 1541 1541 1541 1541 1541 1541 1541 1541 1541 1540 1540 1540 1539 1539 1539 1539
1505 1508 1509 1507 1506 1508 1508 1507 1506 1510 1512 1513 1515 1517 1519 1521 1523 1525 1527 1528 1530 1531 1533 1534 1535 1536 1536 1537 1538 1539 1539 1540 1540 1540 1541 1541 1541 1541 1541 1541 1541 1540 1541 1540 1540 1540 1540 1539 1539
1505 1508 1508 1506 1507 1507 1505 1505 1504 1507 1509 1511 1512 1514 1516 1519 1521 1523 1525 1526 1528 1530 1531 1533 1534 1535 1535 1536 1537 1538 1538 1539 1539 1539 1540 1541 1541 1541 1541 1541 1541 1540 1540 1540 1540 1539 1540 1539 1539
1505 1506 1506 1507 1506 1506 1506 1505 1502 1503 1507 1509 1510 1512 1514 1516 1518 1520 1522 1524 1526 1527 1529 1531 1532 1533 1534 1535 1536 1536 1537 1537 1538 1539 1539 1540 1540 1540 1540 1541 1540 1540 1540 1540 1540 1540 1539 1539 1539
1505 1502 1504 1506 1507 1506 1506 1508 1499 1498 1501 1504 1507 1509 1510 1513 1515 1517 1519 1521 1523 1525 1527 1529 1531 1532 1532 1533 1534 1535 1536 1536 1537 1538 1538 1539 1539 1539 1539 1539 1539 1540 1540 1539 1539 1539 1539 1538 1538
1502 1503 1504 1504 1504 1505 1504 1506 1498 1496 1499 1499 1502 1505 1507 1509 1512 1514 1516 1518 1520 1523 1524 1526 1528 1529 1530 1531 1532 1533 1535 1535 1536 1536 1537 1538 1538 1538 1538 1538 1538 1538 1538 1538 1538 1537 1537 1537 1537
1503 1504 1503 1502 1502 1510 1502 1505 1502 1494 1495 1495 1498 1501 1504 1506 1509 1511 1513 1515 1518 1520 1522 1523 1525 1527 1528 1529 1530 1532 1533 1533 1534 1535 1536 1536 1537 1537 1537 1537 1537 1537 1537 1537 1536 1536 1536 1536 1536
1501 1504 1510 1510 1509 1505 1499 1502 1499 1491 1492 1494 1496 1498 1501 1503 1505 1508 1510 1512 1514 1516 1518 1521 1522 1524 1525 1527 1528 1530 1531 1532 1533 1534 1534 1535 1535 1535 1535 1535 1535 1535 1535 1535 1535 1535 1534 1534 1534
1499 1500 1509 1514 1510 1501 1499 1500 1492 1491 1493 1494 1495 1497 1498 1500 1502 1505 1507 1509 1511 1513 1516 1518 1520 1522 1523 1525 1526 1528 1529 1530 1531 1532 1532 1533 1534 1534 1534 1534 1534 1534 1534 1533 1533 1533 1533 1533 1533
1498 1498 1496 1500 1501 1504 1497 1493 1490 1489 1490 1492 1493 1495 1496 1498 1500 1502 1504 1506 1508 1510 1513 1515 1517 1519 1521 1523 1524 1526 1527 1528 1529 1530 1531 1531 1532 1532 1532 1532 1532 1532 1532 1532 1532 1531 1531 1531 1531
1496 1494 1498 1501 1508 1507 1500 1494 1490 1488 1488 1489 1491 1492 1494 1496 1498 1500 1502 1503 1506 1508 1510 1512 1515 1517 1518 1520 1522 1523 1525 1526 1527 1528 1528 1529 1530 1530 1530 1530 1530 1530 1530 1530 1530 1530 1529 1529 1528
1498 1498 1496 1496 1498 1504 1503 1495 1484 1485 1486 1487 1489 1491 1492 1494 1496 1497 1499 1501 1503 1505 1507 1509 1512 1514 1516 1518 1520 1521 1522 1523 1524 1525 1526 1526 1527 1527 1528 1528 1528 1528 1528 1528 1528 1527 1527 1527 1527
1493 1493 1494 1500 1498 1497 1498 1494 1483 1485 1487 1489 1490 1491 1491 1493 1494 1496 1497 1499 1501 1503 1505 1507 1509 1511 1513 1515 1517 1519 1520 1521 1522 1523 1523 1524 1524 1525 1525 1526 1526 1526 1526 1526 1526 1525 1525 1525 1524